Location: Bastelaar
(51.0950°N, 3.8602°E)
Time: 02:23:31
(UTC+00:00)

ARIANE 6 FM1 Upper Stage - Pass Details

Date: 29 January 2026
Orbit: 522 x 609 km, 62.0° (Epoch: 13 February)

Event Time Altitude Azimuth Distance (km) Brightness Sun altitude
Rises 19:12:39 0° 273° (W) 2,686 7.5 -25.4°
Reaches altitude 10° 19:15:15 10° 289° (WNW) 1,785 6.2 -25.8°
Enters shadow 19:18:22 22° 340° (NNW) 1,185 4.5 -26.3°
